Terminal Aerodrome Forecast
Issued by NWS

Home | Current Version | Previous Version | Text Only | Print | Product List | Glossary On
Versions: 1 2 3 4 5 6 7 8 9 10 11 12 13
000
FTUS45 KRIW 291100
TAFJAC
TAF
KJAC 291121Z 2912/3012 VRB04KT P6SM SCT110
     FM292000 22010G15KT P6SM VCTS SCT070CB BKN120
     FM300200 VRB06KT P6SM VCSH SCT090 BKN120
      AMD LTD TO CLD VIS AND WIND=

USA.gov is the U.S. government's official web portal to all federal, state and local government web resources and services.